Wallops Island, VA

12:42 AM EDT on March 23, 2017 (GMT -0400)
Wallops Flight Facility

Weather History for KWAL - October, 2013

Change the Weather History Date:

Saturday, October 12, 2013

  Actual Average Record
Temperature  
Mean Temperature 68 °F 60 °F  
Max Temperature 69 °F 69 °F 80 °F (1990)
Min Temperature 66 °F 51 °F 37 °F (1996)
Degree Days  
Heating Degree Days 0    
Month to date heating degree days 4  
Since 1 July heating degree days 26  
Cooling Degree Days 3    
Month to date cooling degree days 79  
Year to date cooling degree days 1507  
Growing Degree Days 18 (Base 50)    
Moisture  
Dew Point 65 °F    
Average Humidity 90    
Maximum Humidity 93    
Minimum Humidity 87    
Precipitation  
Precipitation 0.25 in 0.10 in 1.55 in (2002)
Month to date precipitation 3.96 1.24  
Year to date precipitation 34.62 32.61  
Sea Level Pressure  
Sea Level Pressure 29.99 in    
Wind  
Wind Speed 16 mph (ENE)    
Max Wind Speed 23 mph    
Max Gust Speed 30 mph    
Visibility 5 miles    
Events Rain    
T = Trace of Precipitation, MM = Missing Value Source: NWS Daily Summary

Daily Weather History Graph

Daily Weather History Graph

Search for Another Location

Airport or City:

Trip Planner

Search our weather history database for the weather conditions in past years. The results will help you decide how hot, cold, wet, or windy it might be!

Date:

Astronomy

Oct. 12, 2013 Rise Set
Actual Time 7:07 AM EDT 6:28 PM EDT
Civil Twilight 6:41 AM EDT 6:54 PM EDT
Nautical Twilight 6:10 AM EDT 7:25 PM EDT
Astronomical Twilight 5:40 AM EDT 7:55 PM EDT
Moon 2:30 PM EDT (10/12) 12:14 AM EDT (10/12)
Length of Visible Light 12h 13m
Length of Day
11h 20m
First Quarter, 58% of the Moon is Illuminated
Oct 12
First Quarter
Oct 18
Full
Oct 26
Last Quarter
Nov 3
New
Nov 10
First Quarter

Hourly Weather History & Observations

Time (EDT) Temp. Dew Point Humidity Pressure Visibility Wind Dir Wind Speed Gust Speed Precip Events Conditions
12:22 AM 69.1 °F 66.0 °F 90% 29.90 in 8.0 mi NE 11.5 mph - N/A   Overcast
12:54 AM 69.1 °F 66.0 °F 90% 29.90 in 10.0 mi ENE 15.0 mph - N/A   Overcast
1:54 AM 68.0 °F 66.0 °F 93% 29.90 in 9.0 mi ENE 15.0 mph - 0.00 in   Overcast
2:09 AM 68.0 °F 66.0 °F 93% 29.90 in 8.0 mi ENE 13.8 mph - N/A   Overcast
2:54 AM 69.1 °F 66.0 °F 90% 29.89 in 9.0 mi ENE 13.8 mph 23.0 mph N/A   Overcast
3:54 AM 68.0 °F 66.0 °F 93% 29.90 in 9.0 mi ENE 19.6 mph - N/A   Overcast
4:31 AM 66.9 °F 66.0 °F 97% 29.91 in 10.0 mi ENE 16.1 mph - N/A   Overcast
4:54 AM 69.1 °F 66.0 °F 90% 29.91 in 9.0 mi ENE 15.0 mph - N/A   Overcast
5:10 AM 68.0 °F 66.0 °F 93% 29.92 in 2.5 mi ENE 18.4 mph - 0.00 in Rain Light Rain
5:14 AM 68.0 °F 66.0 °F 93% 29.92 in 1.8 mi ENE 17.3 mph - 0.01 in Rain Rain
5:22 AM 68.0 °F 66.0 °F 93% 29.92 in 2.5 mi ENE 19.6 mph 28.8 mph 0.02 in Rain Light Rain
5:29 AM 68.0 °F 66.0 °F 93% 29.92 in 5.0 mi ENE 19.6 mph 28.8 mph 0.02 in Rain Light Rain
5:52 AM 66.2 °F 64.4 °F 94% 29.93 in 5.0 mi ENE 18.4 mph 26.5 mph 0.02 in   Overcast
5:54 AM 66.9 °F 64.9 °F 93% 29.92 in 4.0 mi ENE 19.6 mph 26.5 mph 0.02 in   Overcast
6:18 AM 66.9 °F 64.9 °F 93% 29.93 in 7.0 mi ENE 18.4 mph - 0.01 in   Overcast
6:54 AM 66.9 °F 64.9 °F 93% 29.93 in 8.0 mi ENE 15.0 mph - 0.01 in   Overcast
7:14 AM 66.9 °F 64.9 °F 93% 29.95 in 2.0 mi ENE 16.1 mph - 0.00 in Rain Light Rain
7:25 AM 66.9 °F 64.9 °F 93% 29.95 in 3.0 mi ENE 17.3 mph - 0.02 in Rain Light Rain
7:46 AM 68.0 °F 66.0 °F 93% 29.96 in 2.0 mi ENE 20.7 mph 25.3 mph 0.02 in Rain Light Rain
7:52 AM 68.0 °F 66.2 °F 94% 29.96 in 3.0 mi ENE 17.3 mph 25.3 mph 0.02 in Rain Light Rain
7:54 AM 68.0 °F 66.0 °F 93% 29.96 in 3.0 mi ENE 18.4 mph 25.3 mph 0.02 in Rain Light Rain
8:54 AM 66.9 °F 64.9 °F 93% 29.98 in 6.0 mi ENE 20.7 mph 29.9 mph 0.00 in Rain Light Rain
9:05 AM 66.9 °F 64.9 °F 93% 29.99 in 4.0 mi ENE 21.9 mph - 0.00 in Rain Light Rain
9:13 AM 66.9 °F 64.9 °F 93% 29.99 in 2.5 mi East 20.7 mph 27.6 mph 0.01 in Rain Light Rain
9:23 AM 66.9 °F 64.9 °F 93% 29.99 in 4.0 mi ENE 20.7 mph - 0.01 in Rain Light Rain
9:33 AM 68.0 °F 66.0 °F 93% 30.00 in 2.5 mi ENE 16.1 mph 24.2 mph 0.01 in Rain Light Rain
9:36 AM 68.0 °F 66.0 °F 93% 30.00 in 4.0 mi ENE 19.6 mph - 0.01 in Rain Light Rain
9:54 AM 68.0 °F 64.9 °F 90% 30.00 in 4.0 mi East 19.6 mph 24.2 mph 0.01 in Rain Light Rain
10:38 AM 68.0 °F 66.0 °F 93% 30.01 in 2.0 mi ENE 16.1 mph - 0.00 in   Overcast
10:51 AM 68.0 °F 66.2 °F 94% 30.01 in 3.0 mi ENE 17.3 mph - 0.00 in Rain Light Rain
10:54 AM 68.0 °F 66.0 °F 93% 30.00 in 3.0 mi ENE 15.0 mph - 0.00 in   Overcast
11:54 AM 68.0 °F 66.0 °F 93% 30.01 in 5.0 mi North - - N/A   Overcast
12:54 PM 69.1 °F 66.0 °F 90% 30.00 in 5.0 mi ENE 17.3 mph 26.5 mph N/A   Overcast
1:54 PM 69.1 °F 66.0 °F 90% 30.00 in 3.0 mi ENE 17.3 mph 21.9 mph 0.00 in Rain Light Rain
2:21 PM 69.1 °F 66.0 °F 90% 30.00 in 2.5 mi NE 17.3 mph - 0.01 in Rain Light Rain
2:32 PM 69.1 °F 66.0 °F 90% 30.00 in 2.0 mi ENE 21.9 mph 26.5 mph 0.01 in Rain Light Rain
2:35 PM 68.0 °F 66.0 °F 93% 30.01 in 1.8 mi ENE 19.6 mph - 0.02 in Rain Light Rain
2:54 PM 68.0 °F 66.0 °F 93% 30.00 in 2.0 mi ENE 15.0 mph 23.0 mph 0.04 in Rain Light Rain
3:01 PM 66.9 °F 64.9 °F 93% 30.01 in 1.8 mi ENE 18.4 mph 24.2 mph 0.01 in Rain Light Rain
3:16 PM 66.9 °F 64.9 °F 93% 30.01 in 2.5 mi ENE 18.4 mph 26.5 mph 0.03 in Rain Light Rain
3:44 PM 66.9 °F 64.9 °F 93% 30.01 in 2.0 mi ENE 15.0 mph - 0.05 in Rain Light Rain
3:51 PM 66.2 °F 64.4 °F 94% 30.01 in 1.5 mi ENE 15.0 mph - 0.06 in Rain Light Rain
3:54 PM 66.9 °F 64.9 °F 93% 30.01 in 1.5 mi ENE 13.8 mph - 0.07 in Rain Light Rain
3:59 PM 66.9 °F 64.9 °F 93% 30.02 in 2.5 mi ENE 13.8 mph - 0.00 in Rain Light Rain
4:07 PM 66.9 °F 64.9 °F 93% 30.02 in 5.0 mi NE 17.3 mph 25.3 mph 0.00 in Rain Light Rain
4:19 PM 66.9 °F 64.9 °F 93% 30.02 in 2.5 mi NE 13.8 mph - 0.01 in Rain Light Rain
4:23 PM 66.9 °F 64.9 °F 93% 30.02 in 1.8 mi NE 15.0 mph 23.0 mph 0.01 in Rain Light Rain
4:34 PM 66.9 °F 64.9 °F 93% 30.02 in 2.5 mi NE 16.1 mph - 0.03 in Rain Light Rain
4:41 PM 66.9 °F 64.9 °F 93% 30.02 in 3.0 mi ENE 16.1 mph 24.2 mph 0.03 in Rain Light Rain
4:45 PM 66.9 °F 64.9 °F 93% 30.02 in 2.0 mi ENE 16.1 mph - 0.04 in Rain Light Rain
4:48 PM 66.2 °F 64.4 °F 94% 30.02 in 1.8 mi NE 16.1 mph - 0.04 in Rain Light Rain
4:54 PM 66.9 °F 64.9 °F 93% 30.01 in 1.5 mi NE 15.0 mph - 0.05 in Rain Light Rain
5:16 PM 66.9 °F 64.9 °F 93% 30.03 in 2.0 mi NE 16.1 mph 26.5 mph 0.03 in Rain Light Rain
5:26 PM 66.9 °F 64.0 °F 90% 30.02 in 2.5 mi NE 15.0 mph 25.3 mph 0.03 in Rain Light Rain
5:33 PM 66.0 °F 64.0 °F 93% 30.03 in 5.0 mi NE 18.4 mph 25.3 mph 0.03 in   Overcast
5:54 PM 66.0 °F 64.0 °F 93% 30.02 in 10.0 mi NE 16.1 mph 23.0 mph 0.03 in   Overcast
6:54 PM 66.0 °F 64.0 °F 93% 30.04 in 10.0 mi NE 9.2 mph - N/A   Overcast
7:52 PM 66.2 °F 64.4 °F 94% 30.06 in 10.0 mi NNE 9.2 mph - N/A   Overcast
7:54 PM 66.0 °F 64.0 °F 93% 30.05 in 10.0 mi NNE 8.1 mph - N/A   Overcast
8:21 PM 66.0 °F 64.9 °F 96% 30.06 in 6.0 mi NNE 8.1 mph - N/A   Overcast
8:50 PM 66.2 °F 64.4 °F 94% 30.06 in 2.5 mi NNE 8.1 mph - N/A   Overcast
8:54 PM 66.9 °F 64.9 °F 93% 30.06 in 3.0 mi NNE 6.9 mph - N/A   Overcast
9:46 PM 69.1 °F 66.9 °F 93% 30.07 in 9.0 mi NE 11.5 mph - N/A   Overcast
9:54 PM 69.1 °F 66.9 °F 93% 30.06 in 8.0 mi NE 15.0 mph - N/A   Overcast
10:54 PM 69.1 °F 66.9 °F 93% 30.07 in 6.0 mi ENE 18.4 mph - N/A   Overcast
11:54 PM 69.1 °F 66.0 °F 90% 30.06 in 7.0 mi ENE 16.1 mph - N/A   Overcast